Year,Month,Day,Hour,Minute,Value (Times are PST for temperature in C)
2021,04,23,00,00,10.10
2021,04,23,00,01,10.10
2021,04,23,00,02,10.10
2021,04,23,00,03,10.10
2021,04,23,00,04,10.00
2021,04,23,00,05,10.00
2021,04,23,00,06,10.00
2021,04,23,00,07,10.00
2021,04,23,00,08,9.90
2021,04,23,00,09,9.90
2021,04,23,00,10,9.90
2021,04,23,00,11,9.90
2021,04,23,00,12,9.90
2021,04,23,00,13,9.90
2021,04,23,00,14,9.80
2021,04,23,00,15,9.90
2021,04,23,00,16,9.80
2021,04,23,00,17,9.90
2021,04,23,00,18,9.80
2021,04,23,00,19,9.80
2021,04,23,00,20,9.80
2021,04,23,00,21,9.80
2021,04,23,00,22,9.80
2021,04,23,00,23,9.80
2021,04,23,00,24,9.80
2021,04,23,00,25,9.80
2021,04,23,00,26,9.80
2021,04,23,00,27,9.80
2021,04,23,00,28,9.80
2021,04,23,00,29,9.80
2021,04,23,00,30,9.80
2021,04,23,00,31,9.80
2021,04,23,00,32,9.80
2021,04,23,00,33,9.80
2021,04,23,00,34,9.80
2021,04,23,00,35,9.80
2021,04,23,00,36,9.80
2021,04,23,00,37,9.80
2021,04,23,00,38,9.80
2021,04,23,00,39,9.80
2021,04,23,00,40,9.80
2021,04,23,00,41,9.80
2021,04,23,00,42,9.70
2021,04,23,00,43,9.70
2021,04,23,00,44,9.70
2021,04,23,00,45,9.60
2021,04,23,00,46,9.60
2021,04,23,00,47,9.60
2021,04,23,00,48,9.50
2021,04,23,00,49,9.50
2021,04,23,00,50,9.50
2021,04,23,00,51,9.40
2021,04,23,00,52,9.40
2021,04,23,00,53,9.40
2021,04,23,00,54,9.40
2021,04,23,00,55,9.40
2021,04,23,00,56,9.40
2021,04,23,00,57,9.40
2021,04,23,00,58,9.40
2021,04,23,00,59,9.40
2021,04,23,01,00,9.50
2021,04,23,01,01,9.50
2021,04,23,01,02,9.50
2021,04,23,01,03,9.50
2021,04,23,01,04,9.50
2021,04,23,01,05,9.60
2021,04,23,01,06,9.60
2021,04,23,01,07,9.60
2021,04,23,01,08,9.60
2021,04,23,01,09,9.60
2021,04,23,01,10,9.70
2021,04,23,01,11,9.70
2021,04,23,01,12,9.70
2021,04,23,01,13,9.70
2021,04,23,01,14,9.70
2021,04,23,01,15,9.70
2021,04,23,01,16,9.70
2021,04,23,01,17,9.70
2021,04,23,01,18,9.70
2021,04,23,01,19,9.70
2021,04,23,01,20,9.60
2021,04,23,01,21,9.60
2021,04,23,01,22,9.60
2021,04,23,01,23,9.60
2021,04,23,01,24,9.60
2021,04,23,01,25,9.60
2021,04,23,01,26,9.70
2021,04,23,01,27,9.70
2021,04,23,01,28,9.70
2021,04,23,01,29,9.70
2021,04,23,01,30,9.70
2021,04,23,01,31,9.70
2021,04,23,01,32,9.70
2021,04,23,01,33,9.60
2021,04,23,01,34,9.60
2021,04,23,01,35,9.60
2021,04,23,01,36,9.50
2021,04,23,01,37,9.50
2021,04,23,01,38,9.50
2021,04,23,01,39,9.40
2021,04,23,01,40,9.40
2021,04,23,01,41,9.40
2021,04,23,01,42,9.40
2021,04,23,01,43,9.30
2021,04,23,01,44,9.30
2021,04,23,01,45,9.30
2021,04,23,01,46,9.30
2021,04,23,01,47,9.30
2021,04,23,01,48,9.30
2021,04,23,01,49,9.30
2021,04,23,01,50,9.30
2021,04,23,01,51,9.20
2021,04,23,01,52,9.20
2021,04,23,01,53,9.20
2021,04,23,01,54,9.20
2021,04,23,01,55,9.20
2021,04,23,01,56,9.20
2021,04,23,01,57,9.20
2021,04,23,01,58,9.20
2021,04,23,01,59,9.20
2021,04,23,02,00,9.20
2021,04,23,02,01,9.20
2021,04,23,02,02,9.20
2021,04,23,02,03,9.20
2021,04,23,02,04,9.10
2021,04,23,02,05,9.10
2021,04,23,02,06,9.10
2021,04,23,02,07,9.00
2021,04,23,02,08,9.00
2021,04,23,02,09,9.00
2021,04,23,02,10,8.90
2021,04,23,02,11,8.90
2021,04,23,02,12,8.90
2021,04,23,02,13,8.90
2021,04,23,02,14,8.80
2021,04,23,02,15,8.80
2021,04,23,02,16,8.80
2021,04,23,02,17,8.80
2021,04,23,02,18,8.80
2021,04,23,02,19,8.80
2021,04,23,02,20,8.80
2021,04,23,02,21,8.80
2021,04,23,02,22,8.80
2021,04,23,02,23,8.70
2021,04,23,02,24,8.70
2021,04,23,02,25,8.70
2021,04,23,02,26,8.70
2021,04,23,02,27,8.70
2021,04,23,02,28,8.70
2021,04,23,02,29,8.70
2021,04,23,02,30,8.70
2021,04,23,02,31,8.70
2021,04,23,02,32,8.60
2021,04,23,02,33,8.60
2021,04,23,02,34,8.60
2021,04,23,02,35,8.70
2021,04,23,02,36,8.70
2021,04,23,02,37,8.70
2021,04,23,02,38,8.70
2021,04,23,02,39,8.80
2021,04,23,02,40,8.80
2021,04,23,02,41,8.80
2021,04,23,02,42,8.80
2021,04,23,02,43,8.80
2021,04,23,02,44,8.80
2021,04,23,02,45,8.80
2021,04,23,02,46,8.80
2021,04,23,02,47,8.80
2021,04,23,02,48,8.80
2021,04,23,02,49,8.70
2021,04,23,02,50,8.70
2021,04,23,02,51,8.70
2021,04,23,02,52,8.70
2021,04,23,02,53,8.70
2021,04,23,02,54,8.70
2021,04,23,02,55,8.60
2021,04,23,02,56,8.60
2021,04,23,02,57,8.60
2021,04,23,02,58,8.60
2021,04,23,02,59,8.60
2021,04,23,03,00,8.60
2021,04,23,03,01,8.60
2021,04,23,03,02,8.60
2021,04,23,03,03,8.60
2021,04,23,03,04,8.50
2021,04,23,03,05,8.50
2021,04,23,03,06,8.50
2021,04,23,03,07,8.40
2021,04,23,03,08,8.30
2021,04,23,03,09,8.30
2021,04,23,03,10,8.30
2021,04,23,03,11,8.20
2021,04,23,03,12,8.20
2021,04,23,03,13,8.20
2021,04,23,03,14,8.20
2021,04,23,03,15,8.10
2021,04,23,03,16,8.10
2021,04,23,03,17,8.10
2021,04,23,03,18,8.10
2021,04,23,03,19,8.10
2021,04,23,03,20,8.10
2021,04,23,03,21,8.10
2021,04,23,03,22,8.10
2021,04,23,03,23,8.10
2021,04,23,03,24,8.10
2021,04,23,03,25,8.10
2021,04,23,03,26,8.00
2021,04,23,03,27,8.00
2021,04,23,03,28,8.00
2021,04,23,03,29,8.00
2021,04,23,03,30,8.00
2021,04,23,03,31,8.00
2021,04,23,03,32,7.90
2021,04,23,03,33,8.00
2021,04,23,03,34,7.90
2021,04,23,03,35,7.90
2021,04,23,03,36,7.90
2021,04,23,03,37,7.90
2021,04,23,03,38,7.90
2021,04,23,03,39,7.90
2021,04,23,03,40,7.90
2021,04,23,03,41,7.90
2021,04,23,03,42,7.90
2021,04,23,03,43,7.90
2021,04,23,03,44,7.90
2021,04,23,03,45,7.90
2021,04,23,03,46,7.90
2021,04,23,03,47,7.90
2021,04,23,03,48,7.90
2021,04,23,03,49,7.90
2021,04,23,03,50,7.90
2021,04,23,03,51,7.90
2021,04,23,03,52,7.90
2021,04,23,03,53,7.90
2021,04,23,03,54,7.90
2021,04,23,03,55,7.90
2021,04,23,03,56,7.90
2021,04,23,03,57,7.90
2021,04,23,03,58,7.90
2021,04,23,03,59,7.90
2021,04,23,04,00,7.90
2021,04,23,04,01,7.90
2021,04,23,04,02,7.90
2021,04,23,04,03,7.80
2021,04,23,04,04,7.80
2021,04,23,04,05,7.80
2021,04,23,04,06,7.80
2021,04,23,04,07,7.80
2021,04,23,04,08,7.80
2021,04,23,04,09,7.80
2021,04,23,04,10,7.80
2021,04,23,04,11,7.80
2021,04,23,04,12,7.80
2021,04,23,04,13,7.80
2021,04,23,04,14,7.80
2021,04,23,04,15,7.80
2021,04,23,04,16,7.80
2021,04,23,04,17,7.80
2021,04,23,04,18,7.70
2021,04,23,04,19,7.80
2021,04,23,04,20,7.70
2021,04,23,04,21,7.70
2021,04,23,04,22,7.70
2021,04,23,04,23,7.70
2021,04,23,04,24,7.70
2021,04,23,04,25,7.70
2021,04,23,04,26,7.70
2021,04,23,04,27,7.70
2021,04,23,04,28,7.60
2021,04,23,04,29,7.60
2021,04,23,04,30,7.60
2021,04,23,04,31,7.60
2021,04,23,04,32,7.60
2021,04,23,04,33,7.50
2021,04,23,04,34,7.50
2021,04,23,04,35,7.50
2021,04,23,04,36,7.50
2021,04,23,04,37,7.40
2021,04,23,04,38,7.40
2021,04,23,04,39,7.40
2021,04,23,04,40,7.40
2021,04,23,04,41,7.40
2021,04,23,04,42,7.40
2021,04,23,04,43,7.40
2021,04,23,04,44,7.40
2021,04,23,04,45,7.40
2021,04,23,04,46,7.40
2021,04,23,04,47,7.40
2021,04,23,04,48,7.40
2021,04,23,04,49,7.40
2021,04,23,04,50,7.40
2021,04,23,04,51,7.40
2021,04,23,04,52,7.40
2021,04,23,04,53,7.40
2021,04,23,04,54,7.40
2021,04,23,04,55,7.40
2021,04,23,04,56,7.30
2021,04,23,04,57,7.30
2021,04,23,04,58,7.30
2021,04,23,04,59,7.30
2021,04,23,05,00,7.30
2021,04,23,05,01,7.30
2021,04,23,05,02,7.30
2021,04,23,05,03,7.30
2021,04,23,05,04,7.30
2021,04,23,05,05,7.30
2021,04,23,05,06,7.30
2021,04,23,05,07,7.30
2021,04,23,05,08,7.30
2021,04,23,05,09,7.20
2021,04,23,05,10,7.20
2021,04,23,05,11,7.20
2021,04,23,05,12,7.20
2021,04,23,05,13,7.20
2021,04,23,05,14,7.20
2021,04,23,05,15,7.20
2021,04,23,05,16,7.20
2021,04,23,05,17,7.20
2021,04,23,05,18,7.10
2021,04,23,05,19,7.10
2021,04,23,05,20,7.10
2021,04,23,05,21,7.10
2021,04,23,05,22,7.10
2021,04,23,05,23,7.10
2021,04,23,05,24,7.10
2021,04,23,05,25,7.10
2021,04,23,05,26,7.10
2021,04,23,05,27,7.00
2021,04,23,05,28,7.00
2021,04,23,05,29,7.00
2021,04,23,05,30,7.00
2021,04,23,05,31,6.90
2021,04,23,05,32,6.90
2021,04,23,05,33,6.90
2021,04,23,05,34,6.90
2021,04,23,05,35,6.80
2021,04,23,05,36,6.80
2021,04,23,05,37,6.80
2021,04,23,05,38,6.80
2021,04,23,05,39,6.80
2021,04,23,05,40,6.80
2021,04,23,05,41,6.80
2021,04,23,05,42,6.80
2021,04,23,05,43,6.80
2021,04,23,05,44,6.70
2021,04,23,05,45,6.70
2021,04,23,05,46,6.70
2021,04,23,05,47,6.70
2021,04,23,05,48,6.70
2021,04,23,05,49,6.70
2021,04,23,05,50,6.70
2021,04,23,05,51,6.70
2021,04,23,05,52,6.60
2021,04,23,05,53,6.60
2021,04,23,05,54,6.60
2021,04,23,05,55,6.60
2021,04,23,05,56,6.60
2021,04,23,05,57,6.60
2021,04,23,05,58,6.60
2021,04,23,05,59,6.60
2021,04,23,06,00,6.60
2021,04,23,06,01,6.60
2021,04,23,06,02,6.50
2021,04,23,06,03,6.50
2021,04,23,06,04,6.50
2021,04,23,06,05,6.50
2021,04,23,06,06,6.50
2021,04,23,06,07,6.40
2021,04,23,06,08,6.40
2021,04,23,06,09,6.40
2021,04,23,06,10,6.40
2021,04,23,06,11,6.40
2021,04,23,06,12,6.40
2021,04,23,06,13,6.40
2021,04,23,06,14,6.40
2021,04,23,06,15,6.40
2021,04,23,06,16,6.40
2021,04,23,06,17,6.40
2021,04,23,06,18,6.40
2021,04,23,06,19,6.40
2021,04,23,06,20,6.30
2021,04,23,06,21,6.40
2021,04,23,06,22,6.30
2021,04,23,06,23,6.30
2021,04,23,06,24,6.30
2021,04,23,06,25,6.30
2021,04,23,06,26,6.30
2021,04,23,06,27,6.30
2021,04,23,06,28,6.30
2021,04,23,06,29,6.30
2021,04,23,06,30,6.30
2021,04,23,06,31,6.30
2021,04,23,06,32,6.40
2021,04,23,06,33,6.40
2021,04,23,06,34,6.40
2021,04,23,06,35,6.40
2021,04,23,06,36,6.40
2021,04,23,06,37,6.40
2021,04,23,06,38,6.40
2021,04,23,06,39,6.40
2021,04,23,06,40,6.40
2021,04,23,06,41,6.40
2021,04,23,06,42,6.40
2021,04,23,06,43,6.40
2021,04,23,06,44,6.50
2021,04,23,06,45,6.50
2021,04,23,06,46,6.50
2021,04,23,06,47,6.50
2021,04,23,06,48,6.50
2021,04,23,06,49,6.50
2021,04,23,06,50,6.50
2021,04,23,06,51,6.50
2021,04,23,06,52,6.50
2021,04,23,06,53,6.50
2021,04,23,06,54,6.50
2021,04,23,06,55,6.50
2021,04,23,06,56,6.50
2021,04,23,06,57,6.50
2021,04,23,06,58,6.50
2021,04,23,06,59,6.50
2021,04,23,07,00,6.40
2021,04,23,07,01,6.50
2021,04,23,07,02,6.40
2021,04,23,07,03,6.40
2021,04,23,07,04,6.40
2021,04,23,07,05,6.40
2021,04,23,07,06,6.40
2021,04,23,07,07,6.40
2021,04,23,07,08,6.40
2021,04,23,07,09,6.40
2021,04,23,07,10,6.40
2021,04,23,07,11,6.40
2021,04,23,07,12,6.40
2021,04,23,07,13,6.40
2021,04,23,07,14,6.40
2021,04,23,07,15,6.40
2021,04,23,07,16,6.40
2021,04,23,07,17,6.40
2021,04,23,07,18,6.40
2021,04,23,07,19,6.40
2021,04,23,07,20,6.40
2021,04,23,07,21,6.50
2021,04,23,07,22,6.50
2021,04,23,07,23,6.50
2021,04,23,07,24,6.50
2021,04,23,07,25,6.60
2021,04,23,07,26,6.60
2021,04,23,07,27,6.60
2021,04,23,07,28,6.60
2021,04,23,07,29,6.60
2021,04,23,07,30,6.60
2021,04,23,07,31,6.70
2021,04,23,07,32,6.70
2021,04,23,07,33,6.70
2021,04,23,07,34,6.70
2021,04,23,07,35,6.80
2021,04,23,07,36,6.80
2021,04,23,07,37,6.80
2021,04,23,07,38,6.80
2021,04,23,07,39,6.90
2021,04,23,07,40,6.90
2021,04,23,07,41,6.90
2021,04,23,07,42,7.00
2021,04,23,07,43,7.00
2021,04,23,07,44,7.00
2021,04,23,07,45,7.10
2021,04,23,07,46,7.10
2021,04,23,07,47,7.20
2021,04,23,07,48,7.20
2021,04,23,07,49,7.30
2021,04,23,07,50,7.40
2021,04,23,07,51,7.40
2021,04,23,07,52,7.50
2021,04,23,07,53,7.60
2021,04,23,07,54,7.60
2021,04,23,07,55,7.70
2021,04,23,07,56,7.70
2021,04,23,07,57,7.80
2021,04,23,07,58,7.80
2021,04,23,07,59,7.90
2021,04,23,08,00,8.00
2021,04,23,08,01,8.10
2021,04,23,08,02,8.10
2021,04,23,08,03,8.20
2021,04,23,08,04,8.30
2021,04,23,08,05,8.30
2021,04,23,08,06,8.40
2021,04,23,08,07,8.50
2021,04,23,08,08,8.50
2021,04,23,08,09,8.60
2021,04,23,08,10,8.70
2021,04,23,08,11,8.70
2021,04,23,08,12,8.80
2021,04,23,08,13,8.80
2021,04,23,08,14,8.90
2021,04,23,08,15,9.00
2021,04,23,08,16,9.10
2021,04,23,08,17,9.20
2021,04,23,08,18,9.20
2021,04,23,08,19,9.30
2021,04,23,08,20,9.40
2021,04,23,08,21,9.50
2021,04,23,08,22,9.50
2021,04,23,08,23,9.60
2021,04,23,08,24,9.70
2021,04,23,08,25,9.80
2021,04,23,08,26,9.80
2021,04,23,08,27,9.90
2021,04,23,08,28,10.00
2021,04,23,08,29,10.10
2021,04,23,08,30,10.10
2021,04,23,08,31,10.20
2021,04,23,08,32,10.30
2021,04,23,08,33,10.40
2021,04,23,08,34,10.50
2021,04,23,08,35,10.50
2021,04,23,08,36,10.60
2021,04,23,08,37,10.70
2021,04,23,08,38,10.70
2021,04,23,08,39,10.80
2021,04,23,08,40,10.80
2021,04,23,08,41,10.80
2021,04,23,08,42,10.90
2021,04,23,08,43,10.90
2021,04,23,08,44,10.90
2021,04,23,08,45,10.90
2021,04,23,08,46,11.00
2021,04,23,08,47,11.00
2021,04,23,08,48,11.00
2021,04,23,08,49,11.00
2021,04,23,08,50,11.00
2021,04,23,08,51,11.00
2021,04,23,08,52,11.00
2021,04,23,08,53,11.00
2021,04,23,08,54,11.10
2021,04,23,08,55,11.10
2021,04,23,08,56,11.10
2021,04,23,08,57,11.10
2021,04,23,08,58,11.10
2021,04,23,08,59,11.10
2021,04,23,09,00,11.10
2021,04,23,09,01,11.20
2021,04,23,09,02,11.20
2021,04,23,09,03,11.20
2021,04,23,09,04,11.30
2021,04,23,09,05,11.30
2021,04,23,09,06,11.30
2021,04,23,09,07,11.40
2021,04,23,09,08,11.40
2021,04,23,09,09,11.40
2021,04,23,09,10,11.50
2021,04,23,09,11,11.50
2021,04,23,09,12,11.60
2021,04,23,09,13,11.60
2021,04,23,09,14,11.60
2021,04,23,09,15,11.70
2021,04,23,09,16,11.70
2021,04,23,09,17,11.70
2021,04,23,09,18,11.70
2021,04,23,09,19,11.70
2021,04,23,09,20,11.70
2021,04,23,09,21,11.70
2021,04,23,09,22,11.70
2021,04,23,09,23,11.80
2021,04,23,09,24,11.80
2021,04,23,09,25,11.80
2021,04,23,09,26,11.80
2021,04,23,09,27,11.90
2021,04,23,09,28,11.90
2021,04,23,09,29,11.90
2021,04,23,09,30,11.90
2021,04,23,09,31,11.90
2021,04,23,09,32,11.90
2021,04,23,09,33,12.00
2021,04,23,09,34,12.00
2021,04,23,09,35,12.10
2021,04,23,09,36,12.10
2021,04,23,09,37,12.10
2021,04,23,09,38,12.10
2021,04,23,09,39,12.10
2021,04,23,09,40,12.10
2021,04,23,09,41,12.10
2021,04,23,09,42,12.20
2021,04,23,09,43,12.20
2021,04,23,09,44,12.30
2021,04,23,09,45,12.30
2021,04,23,09,46,12.40
2021,04,23,09,47,12.50
2021,04,23,09,48,12.60
2021,04,23,09,49,12.60
2021,04,23,09,50,12.70
2021,04,23,09,51,12.80
2021,04,23,09,52,12.80
2021,04,23,09,53,12.90
2021,04,23,09,54,13.00
2021,04,23,09,55,13.00
2021,04,23,09,56,13.10
2021,04,23,09,57,13.20
2021,04,23,09,58,13.30
2021,04,23,09,59,13.30
2021,04,23,10,00,13.30
2021,04,23,10,01,13.30
2021,04,23,10,02,13.20
2021,04,23,10,03,13.20
2021,04,23,10,04,13.20
2021,04,23,10,05,13.30
2021,04,23,10,06,13.40
2021,04,23,10,07,13.40
2021,04,23,10,08,13.40
2021,04,23,10,09,13.30
2021,04,23,10,10,13.20
2021,04,23,10,11,13.20
2021,04,23,10,12,13.10
2021,04,23,10,13,13.10
2021,04,23,10,14,13.00
2021,04,23,10,15,13.00
2021,04,23,10,16,12.90
2021,04,23,10,17,13.00
2021,04,23,10,18,13.00
2021,04,23,10,19,13.10
2021,04,23,10,20,13.10
2021,04,23,10,21,13.20
2021,04,23,10,22,13.30
2021,04,23,10,23,13.30
2021,04,23,10,24,13.20
2021,04,23,10,25,13.10
2021,04,23,10,26,13.10
2021,04,23,10,27,13.10
2021,04,23,10,28,13.10
2021,04,23,10,29,13.10
2021,04,23,10,30,13.10
2021,04,23,10,31,13.10
2021,04,23,10,32,13.10
2021,04,23,10,33,13.10
2021,04,23,10,34,13.10
2021,04,23,10,35,13.20
2021,04,23,10,36,13.10
2021,04,23,10,37,13.10
2021,04,23,10,38,13.10
2021,04,23,10,39,13.00
2021,04,23,10,40,13.00
2021,04,23,10,41,13.00
2021,04,23,10,42,13.00
2021,04,23,10,43,13.10
2021,04,23,10,44,13.20
2021,04,23,10,45,13.20
2021,04,23,10,46,13.40
2021,04,23,10,47,13.40
2021,04,23,10,48,13.40
2021,04,23,10,49,13.40
2021,04,23,10,50,13.20
2021,04,23,10,51,13.10
2021,04,23,10,52,13.10
2021,04,23,10,53,13.10
2021,04,23,10,54,13.20
2021,04,23,10,55,13.30
2021,04,23,10,56,13.30
2021,04,23,10,57,13.40
2021,04,23,10,58,13.40
2021,04,23,10,59,13.50
2021,04,23,11,00,13.50
2021,04,23,11,01,13.40
2021,04,23,11,02,13.40
2021,04,23,11,03,13.40
2021,04,23,11,04,13.40
2021,04,23,11,05,13.40
2021,04,23,11,06,13.30
2021,04,23,11,07,13.30
2021,04,23,11,08,13.30
2021,04,23,11,09,13.30
2021,04,23,11,10,13.30
2021,04,23,11,11,13.30
2021,04,23,11,12,13.40
2021,04,23,11,13,13.30
2021,04,23,11,14,13.30
2021,04,23,11,15,13.30
2021,04,23,11,16,13.30
2021,04,23,11,17,13.40
2021,04,23,11,18,13.40
2021,04,23,11,19,13.30
2021,04,23,11,20,13.30
2021,04,23,11,21,13.20
2021,04,23,11,22,13.20
2021,04,23,11,23,13.10
2021,04,23,11,24,13.10
2021,04,23,11,25,13.20
2021,04,23,11,26,13.20
2021,04,23,11,27,13.20
2021,04,23,11,28,13.20
2021,04,23,11,29,13.20
2021,04,23,11,30,13.20
2021,04,23,11,31,13.20
2021,04,23,11,32,13.30
2021,04,23,11,33,13.40
2021,04,23,11,34,13.60
2021,04,23,11,35,13.60
2021,04,23,11,36,13.70
2021,04,23,11,37,13.70
2021,04,23,11,38,13.70
2021,04,23,11,39,13.70
2021,04,23,11,40,13.80
2021,04,23,11,41,13.80
2021,04,23,11,42,13.90
2021,04,23,11,43,14.00
2021,04,23,11,44,14.10
2021,04,23,11,45,14.10
2021,04,23,11,46,14.10
2021,04,23,11,47,14.10
2021,04,23,11,48,14.20
2021,04,23,11,49,14.20
2021,04,23,11,50,14.20
2021,04,23,11,51,14.10
2021,04,23,11,52,13.90
2021,04,23,11,53,13.80
2021,04,23,11,54,13.70
2021,04,23,11,55,13.60
2021,04,23,11,56,13.60
2021,04,23,11,57,13.60
2021,04,23,11,58,13.70
2021,04,23,11,59,13.70
2021,04,23,12,00,13.80
2021,04,23,12,01,13.80
2021,04,23,12,02,13.90
2021,04,23,12,03,13.90
2021,04,23,12,04,13.90
2021,04,23,12,05,14.00
2021,04,23,12,06,13.80
2021,04,23,12,07,13.80
2021,04,23,12,08,13.70
2021,04,23,12,09,13.60
2021,04,23,12,10,13.50
2021,04,23,12,11,13.40
2021,04,23,12,12,13.30
2021,04,23,12,13,13.30
2021,04,23,12,14,13.30
2021,04,23,12,15,13.40
2021,04,23,12,16,13.40
2021,04,23,12,17,13.50
2021,04,23,12,18,13.50
2021,04,23,12,19,13.60
2021,04,23,12,20,13.60
2021,04,23,12,21,13.60
2021,04,23,12,22,13.60
2021,04,23,12,23,13.70
2021,04,23,12,24,13.70
2021,04,23,12,25,13.80
2021,04,23,12,26,13.90
2021,04,23,12,27,14.00
2021,04,23,12,28,14.00
2021,04,23,12,29,14.10
2021,04,23,12,30,14.20
2021,04,23,12,31,14.20
2021,04,23,12,32,14.10
2021,04,23,12,33,14.00
2021,04,23,12,34,13.90
2021,04,23,12,35,13.80
2021,04,23,12,36,13.70
2021,04,23,12,37,13.60
2021,04,23,12,38,13.50
2021,04,23,12,39,13.50
2021,04,23,12,40,13.40
2021,04,23,12,41,13.30
2021,04,23,12,42,13.30
2021,04,23,12,43,13.30
2021,04,23,12,44,13.30
2021,04,23,12,45,13.30
2021,04,23,12,46,13.30
2021,04,23,12,47,13.30
2021,04,23,12,48,13.30
2021,04,23,12,49,13.20
2021,04,23,12,50,13.20
2021,04,23,12,51,13.20
2021,04,23,12,52,13.20
2021,04,23,12,53,13.20
2021,04,23,12,54,13.20
2021,04,23,12,55,13.30
2021,04,23,12,56,13.30
2021,04,23,12,57,13.30
2021,04,23,12,58,13.30
2021,04,23,12,59,13.30
2021,04,23,13,00,13.40
2021,04,23,13,01,13.40
2021,04,23,13,02,13.40
2021,04,23,13,03,13.40
2021,04,23,13,04,13.30
2021,04,23,13,05,13.30
2021,04,23,13,06,13.30
2021,04,23,13,07,13.30
2021,04,23,13,08,13.30
2021,04,23,13,09,13.20
2021,04,23,13,10,13.20
2021,04,23,13,11,13.20
2021,04,23,13,12,13.20
2021,04,23,13,13,13.30
2021,04,23,13,14,13.30
2021,04,23,13,15,13.30
2021,04,23,13,16,13.30
2021,04,23,13,17,13.20
2021,04,23,13,18,13.20
2021,04,23,13,19,13.30
2021,04,23,13,20,13.30
2021,04,23,13,21,13.30
2021,04,23,13,22,13.20
2021,04,23,13,23,13.20
2021,04,23,13,24,13.10
2021,04,23,13,25,13.10
2021,04,23,13,26,13.10
2021,04,23,13,27,13.10
2021,04,23,13,28,13.10
2021,04,23,13,29,13.20
2021,04,23,13,30,13.20
2021,04,23,13,31,13.20
2021,04,23,13,32,13.20
2021,04,23,13,33,13.10
2021,04,23,13,34,13.10
2021,04,23,13,35,13.10
2021,04,23,13,36,13.10
2021,04,23,13,37,13.10
2021,04,23,13,38,13.10
2021,04,23,13,39,13.00
2021,04,23,13,40,13.10
2021,04,23,13,41,13.10
2021,04,23,13,42,13.10
2021,04,23,13,43,13.10
2021,04,23,13,44,13.20
2021,04,23,13,45,13.30
2021,04,23,13,46,13.30
2021,04,23,13,47,13.40
2021,04,23,13,48,13.40
2021,04,23,13,49,13.40
2021,04,23,13,50,13.30
2021,04,23,13,51,13.30
2021,04,23,13,52,13.30
2021,04,23,13,53,13.30
2021,04,23,13,54,13.30
2021,04,23,13,55,13.20
2021,04,23,13,56,13.20
2021,04,23,13,57,13.20
2021,04,23,13,58,13.10
2021,04,23,13,59,13.10
2021,04,23,14,00,13.10
2021,04,23,14,01,13.10
2021,04,23,14,02,13.20
2021,04,23,14,03,13.20
2021,04,23,14,04,13.20
2021,04,23,14,05,13.30
2021,04,23,14,06,13.30
2021,04,23,14,07,13.30
2021,04,23,14,08,13.40
2021,04,23,14,09,13.40
2021,04,23,14,10,13.40
2021,04,23,14,11,13.40
2021,04,23,14,12,13.40
2021,04,23,14,13,13.40
2021,04,23,14,14,13.60
2021,04,23,14,15,13.60
2021,04,23,14,16,13.70
2021,04,23,14,17,13.70
2021,04,23,14,18,13.80
2021,04,23,14,19,13.80
2021,04,23,14,20,13.80
2021,04,23,14,21,13.80
2021,04,23,14,22,13.90
2021,04,23,14,23,13.90
2021,04,23,14,24,14.00
2021,04,23,14,25,14.10
2021,04,23,14,26,14.10
2021,04,23,14,27,14.10
2021,04,23,14,28,14.10
2021,04,23,14,29,14.20
2021,04,23,14,30,14.20
2021,04,23,14,31,14.20
2021,04,23,14,32,14.10
2021,04,23,14,33,14.10
2021,04,23,14,34,14.10
2021,04,23,14,35,14.10
2021,04,23,14,36,14.10
2021,04,23,14,37,14.00
2021,04,23,14,38,13.90
2021,04,23,14,39,13.80
2021,04,23,14,40,13.80
2021,04,23,14,41,13.80
2021,04,23,14,42,13.90
2021,04,23,14,43,13.90
2021,04,23,14,44,14.00
2021,04,23,14,45,14.00
2021,04,23,14,46,14.00
2021,04,23,14,47,14.10
2021,04,23,14,48,14.10
2021,04,23,14,49,14.20
2021,04,23,14,50,14.30
2021,04,23,14,51,14.30
2021,04,23,14,52,14.40
2021,04,23,14,53,14.40
2021,04,23,14,54,14.40
2021,04,23,14,55,14.40
2021,04,23,14,56,14.40
2021,04,23,14,57,14.40
2021,04,23,14,58,14.40
2021,04,23,14,59,14.40
2021,04,23,15,00,14.50
2021,04,23,15,01,14.50
2021,04,23,15,02,14.60
2021,04,23,15,03,14.50
2021,04,23,15,04,14.60
2021,04,23,15,05,14.60
2021,04,23,15,06,14.60
2021,04,23,15,07,14.60
2021,04,23,15,08,14.60
2021,04,23,15,09,14.60
2021,04,23,15,10,14.60
2021,04,23,15,11,14.60
2021,04,23,15,12,14.60
2021,04,23,15,13,14.60
2021,04,23,15,14,14.50
2021,04,23,15,15,14.40
2021,04,23,15,16,14.40
2021,04,23,15,17,14.40
2021,04,23,15,18,14.40
2021,04,23,15,19,14.40
2021,04,23,15,20,14.40
2021,04,23,15,21,14.40
2021,04,23,15,22,14.40
2021,04,23,15,23,14.40
2021,04,23,15,24,14.40
2021,04,23,15,25,14.40
2021,04,23,15,26,14.50
2021,04,23,15,27,14.50
2021,04,23,15,28,14.50
2021,04,23,15,29,14.50
2021,04,23,15,30,14.50
2021,04,23,15,31,14.50
2021,04,23,15,32,14.40
2021,04,23,15,33,14.40
2021,04,23,15,34,14.30
2021,04,23,15,35,14.30
2021,04,23,15,36,14.30
2021,04,23,15,37,14.30
2021,04,23,15,38,14.20
2021,04,23,15,39,14.20
2021,04,23,15,40,14.20
2021,04,23,15,41,14.20
2021,04,23,15,42,14.10
2021,04,23,15,43,14.10
2021,04,23,15,44,14.10
2021,04,23,15,45,14.10
2021,04,23,15,46,14.10
2021,04,23,15,47,14.00
2021,04,23,15,48,14.00
2021,04,23,15,49,14.00
2021,04,23,15,50,14.10
2021,04,23,15,51,14.10
2021,04,23,15,52,14.10
2021,04,23,15,53,14.10
2021,04,23,15,54,14.10
2021,04,23,15,55,14.00
2021,04,23,15,56,14.00
2021,04,23,15,57,14.10
2021,04,23,15,58,14.10
2021,04,23,15,59,14.10
2021,04,23,16,00,14.10
2021,04,23,16,01,14.10
2021,04,23,16,02,14.10
2021,04,23,16,03,14.10
2021,04,23,16,04,14.10
2021,04,23,16,05,14.10
2021,04,23,16,06,14.10
2021,04,23,16,07,14.10
2021,04,23,16,08,14.10
2021,04,23,16,09,14.10
2021,04,23,16,10,14.00
2021,04,23,16,11,14.00
2021,04,23,16,12,14.00
2021,04,23,16,13,14.00
2021,04,23,16,14,14.00
2021,04,23,16,15,14.00
2021,04,23,16,16,14.00
2021,04,23,16,17,14.00
2021,04,23,16,18,14.00
2021,04,23,16,19,14.10
2021,04,23,16,20,14.10
2021,04,23,16,21,14.10
2021,04,23,16,22,14.10
2021,04,23,16,23,14.00
2021,04,23,16,24,14.00
2021,04,23,16,25,14.00
2021,04,23,16,26,14.00
2021,04,23,16,27,13.90
2021,04,23,16,28,13.90
2021,04,23,16,29,13.90
2021,04,23,16,30,13.80
2021,04,23,16,31,13.80
2021,04,23,16,32,13.70
2021,04,23,16,33,13.60
2021,04,23,16,34,13.60
2021,04,23,16,35,13.50
2021,04,23,16,36,13.50
2021,04,23,16,37,13.50
2021,04,23,16,38,13.50
2021,04,23,16,39,13.50
2021,04,23,16,40,13.40
2021,04,23,16,41,13.40
2021,04,23,16,42,13.40
2021,04,23,16,43,13.40
2021,04,23,16,44,13.50
2021,04,23,16,45,13.50
2021,04,23,16,46,13.50
2021,04,23,16,47,13.40
2021,04,23,16,48,13.40
2021,04,23,16,49,13.40
2021,04,23,16,50,13.40
2021,04,23,16,51,13.40
2021,04,23,16,52,13.40
2021,04,23,16,53,13.40
2021,04,23,16,54,13.30
2021,04,23,16,55,13.30
2021,04,23,16,56,13.20
2021,04,23,16,57,13.20
2021,04,23,16,58,13.20
2021,04,23,16,59,13.10
2021,04,23,17,00,13.10
2021,04,23,17,01,13.10
2021,04,23,17,02,13.00
2021,04,23,17,03,13.00
2021,04,23,17,04,13.00
2021,04,23,17,05,13.00
2021,04,23,17,06,13.10
2021,04,23,17,07,13.10
2021,04,23,17,08,13.10
2021,04,23,17,09,13.20
2021,04,23,17,10,13.20
2021,04,23,17,11,13.20
2021,04,23,17,12,13.20
2021,04,23,17,13,13.20
2021,04,23,17,14,13.20
2021,04,23,17,15,13.30
2021,04,23,17,16,13.30
2021,04,23,17,17,13.30
2021,04,23,17,18,13.20
2021,04,23,17,19,13.10
2021,04,23,17,20,13.10
2021,04,23,17,21,13.10
2021,04,23,17,22,13.10
2021,04,23,17,23,13.10
2021,04,23,17,24,13.10
2021,04,23,17,25,13.10
2021,04,23,17,26,13.10
2021,04,23,17,27,13.10
2021,04,23,17,28,13.10
2021,04,23,17,29,13.10
2021,04,23,17,30,13.10
2021,04,23,17,31,13.10
2021,04,23,17,32,13.10
2021,04,23,17,33,13.10
2021,04,23,17,34,13.10
2021,04,23,17,35,13.10
2021,04,23,17,36,13.10
2021,04,23,17,37,13.20
2021,04,23,17,38,13.20
2021,04,23,17,39,13.20
2021,04,23,17,40,13.10
2021,04,23,17,41,13.10